Terug naar catalogus

TIANQI 26

ActiefCommunicatieLEO
NORAD 59910·PAYLOAD·🇨🇳 China

Gelanceerd May 29, 2024 vanaf Yellow Sea Launch Area

Loading…

Volgende Passages (komende 24 uur)

TLE

VersSource: Space-Track

Epoch: Sep 14, 2026, 21:42 UTC

1 59910U 24102B   26257.90457388 -.00000017  00000-0  76265-4 0  9998
2 59910  44.9723 222.2826 0011806 307.0493  52.9259 13.99176530117477

Volg TIANQI 26 in realtime met AllMySat

Download on the App Store